Regional Weather Roundup
Issued by NWS

Home | Current Version | Previous Version | Graphics & Text | Print | Product List | Glossary On
Versions: 1 2 3 4 5 6 7 8 9 10 11 12 13 14 15 16 17 18 19 20 21 22 23 24 25 26 27 28 29 30 31 32 33 34 35 36 37 38 39 40 41 42 43 44 45 46 47 48 49 50
000
ASUS45 KTFX 220719
RWRMT
MONTANA HOURLY WEATHER ROUNDUP
NATIONAL WEATHER SERVICE GREAT FALLS MT
1219 AM MST MON DEC 22 2014

NOTE: "FAIR" INDICATES FEW OR NO CLOUDS BELOW 12000 FEET WITH NO
SIGNIFICANT WEATHER AND/OR OBSTRUCTIONS TO VISIBILITY.

* THESE STATIONS ARE NOT UNDER NWS QUALITY CONTROL. THEY DO NOT
   REPORT WEATHER SUCH AS PRECIPITATION OR FOG.

MTZ001>007-043-220800-
WEST OF THE DIVIDE
CITY           SKY/WX    TMP DP  RH WIND       PRES   REMARKS
KALISPELL      CLOUDY    36  28  73 SW5       29.82S WCI  32
MISSOULA       CLOUDY    37  30  76 NW7       29.87S WCI  32
BUTTE          LGT SNOW  30  25  82 W6        29.83S VSB 2 1/2 WCI  24
MULLAN PASS    CLOUDY    27  27 100 W10G18    29.84S WCI  18
* ESSEX        N/A       34  29  82 W4         N/A
* EUREKA APT   PTCLDY    39  27  62 SW5       29.83R WCI  35
* HAMILTON APT CLOUDY    36  32  85 S7        29.89S WCI  30
* LIBBY APT    CLOUDY    37  32  82 CALM      29.86R
* LINCOLN      N/A       31  30  96 S5         N/A   WCI  26
* LOOKOUT PASS N/A       35  27  73 SE9        N/A   WCI  28
* POLSON       N/A       37  28  70 NW2G9      N/A
* RONAN APT    CLOUDY    39  30  70 N/A        N/A
* SEELEY LAKE  N/A       32  30  92 N2         N/A
* THOMP F APT  CLOUDY    26  20  78 NE4G11     N/A
$$

MTZ008-052>055-220800-
SOUTHWEST MONTANA
CITY           SKY/WX    TMP DP  RH WIND       PRES   REMARKS
BOZEMAN        CLOUDY    34  25  70 NW8       29.81F WCI  27
DILLON         CLOUDY    34  25  70 W15       29.85S WCI  24
* W YELLOWSTON CLOUDY    26  23  88 SW2G10     N/A
* THREE FORKS  CLOUDY    39  32  76 W17G25     N/A   WCI  30
* BOULDER HILL N/A       33  15  47 VRB2G8     N/A
* MONIDA PASS  N/A       26  17  69 W10        N/A   WCI  16
* RAYNOLDS PAS N/A       26  16  66 SW1        N/A
* WHITEHALL    N/A       32  26  79 NW3        N/A
* WISE RIVER   N/A       30  26  85 W5G12      N/A   WCI  25
$$

MTZ009>010-012-014-046-048-049-054-220800-
EAST SLOPES AND CENTRAL MONTANA
CITY           SKY/WX    TMP DP  RH WIND       PRES   REMARKS
CUT BANK       CLEAR     30  21  69 W12       29.68R WCI  20
GREAT FALLS    CLEAR     34  25  70 W14       29.70S WCI  24
HELENA         MOCLDY    39  27  62 W14       29.78R WCI  31
MALMSTROM AFB  MOCLDY    36  25  64 W12       29.73R WCI  28
* CONRAD       CLEAR     36  27  70 SW12G20    N/A   WCI  28
* DEARBORN     N/A       29  22  75 SW2        N/A
* EAST GLACIER N/A       33  17  52 NW24G42    N/A   WCI  20
* MONARCH      N/A       32  14  47 W20G26     N/A   WCI  20
* PENDROY      N/A       33  20  59 W15G22     N/A   WCI  23
* ROGERS PASS  N/A       28  26  92 SE7G16     N/A   WCI  21
* SWEET GRASS  N/A       31  20  64 NW4G11     N/A
* WHITE SULPH  N/A       30  19  64 W6G13      N/A   WCI  24
$$

MTZ011-013-016-021-035-040-045-047-050-051-220800-
NORTH CENTRAL MONTANA
CITY           SKY/WX    TMP DP  RH WIND       PRES   REMARKS
HAVRE          PTCLDY    34  27  76 W9        29.66R WCI  27
LEWISTOWN      CLOUDY    37  25  62 NW13G18   29.69R WCI  29
* N BAR RANCH  CLOUDY    34  23  64 NW20G31   29.65R WCI  23
* CHINOOK      PTCLDY    34  28  79 W12       29.64R WCI  25
* CHESTER      N/A       30  24  78 NW1G6      N/A
* DENTON       N/A       37  23  57 NW9G17     N/A   WCI  30
* GEYSER       N/A       36  18  48 W19G27     N/A   WCI  25
* JUDITH GAP   N/A       35  18  50 NW14G20    N/A   WCI  26
* LOMA         N/A       34  25  70 SW6        N/A   WCI  29
$$

MTZ017>020-022>027-061-062-220800-
NORTHEAST MONTANA
CITY           SKY/WX    TMP DP  RH WIND       PRES   REMARKS
GLASGOW        CLOUDY    36  30  79 NW20G29   29.50R WCI  25
GLENDIVE       CLOUDY    36  30  79 W16G26    29.48R WCI  26
JORDAN         MOCLDY    36  30  79 NW12      29.54R WCI  28
SIDNEY         MOCLDY    36  32  85 W13G22    29.44R WCI  27
WOLF POINT     CLOUDY    36  28  73 W10       29.48R WCI  29
* BEAVER HILL  N/A       34  32  92 W21G29     N/A   WCI  22
* CIRCLE       N/A       37  33  85 W6G18      N/A   WCI  32
* LINDSAY DVD  N/A       34  32  92 W32G40     N/A   WCI  20
* PLENTYWOOD A MOCLDY    32  30  92 NW9       29.41R WCI  24
* POPLAR APT   MOCLDY    34  30  85 W14       29.47R WCI  24
* SACO         N/A       34  30  85 W14G19     N/A   WCI  24
$$

MTZ028>042-056>058-220800-
SOUTHCENTRAL AND SOUTHEAST MONTANA
CITY           SKY/WX    TMP DP  RH WIND       PRES   REMARKS
BAKER          LGT RAIN  36 N/A N/A NW24G36   29.47R WCI  24
BILLINGS       CLEAR     39  19  45 W24       29.70R WCI  28
LIVINGSTON     PTCLDY    37  21  52 W21       29.76F WCI  26
MILES CITY     PTCLDY    37  28  70 W18       29.54R WCI  27
* BIG TIMBER A PTCLDY    36  18  48 SW15      29.76R WCI  27
* FORSYTH APT  PTCLDY    39  28  65 W16G23    29.59R WCI  30
* LAUREL APT   CLEAR     41  18  39 W22G35     N/A
* ROUNDUP APT  PTCLDY    39  19  45 W11        N/A   WCI  32
* ALZADA       N/A       35  33  92 W16        N/A   WCI  25
* HYSHAM       N/A       40  21  47 W18G29     N/A   WCI  31
* LAME DEER    N/A       37  25  62 NW16G32    N/A   WCI  28
* REED POINT   N/A       40  18  41 W19G29     N/A   WCI  31
* ROSCOE HILL  N/A       34   6  31 W10G21     N/A   WCI  26
$$

REGIONAL REPORTS...DAKOTAS
CITY           SKY/WX    TMP DP  RH WIND       PRES   REMARKS
WILLISTON      CLOUDY    34  30  85 SW5       29.41R WCI  29
DICKINSON      CLOUDY    37  34  89 W14       29.38S WCI  28
BEACH          LGT RAIN  32  32 100 W21G26    29.44R WCI  20
CROSBY         CLOUDY    27  27 100 S5        29.41R WCI  21
TIOGA          CLOUDY    27  27 100 NE3       29.42S
WATFORD CITY   FOG       32  32 100 W6        29.38S WCI  26
BISMARCK       FOG       28  28 100 S6        29.45S VSB 3    WCI  21
GRAND FORKS    CLOUDY    34  32  92 SE8       29.55S WCI  27
FARGO          FOG       37  36  96 SE12      29.52F WCI  29
BUFFALO SD     PTCLDY    39  34  82 W32G41    29.40S WCI  27
RAPID CITY     CLOUDY    39  34  82 NW29G40   29.50R WCI  27
$$

REGIONAL REPORTS...WYOMING/IDAHO/WASHINGTON
CITY           SKY/WX    TMP DP  RH WIND       PRES   REMARKS
GILLETTE       LGT SNOW  34  30  85 NW21G33   29.64R WCI  22
SHERIDAN       CLOUDY    37  27  67 NW8       29.67F WCI  31
CODY           PTCLDY    34  18  52 NW9       29.73S WCI  27
YELLOWSTONE LA MOCLDY    23  18  81 VRB6      29.82S WCI  16
SALMON         CLOUDY    34  28  79 S3        29.90F
MULLAN PASS    CLOUDY    27  27 100 W10G18    29.84S WCI  18
SAND POINT     MOCLDY    41  34  76 SW6       29.90R
SPOKANE        CLOUDY    39  34  82 SW13      29.95R WCI  31
$$

REGIONAL REPORTS...ALBERTA
CITY           SKY/WX    TMP DP  RH WIND       PRES   REMARKS
CALGARY        MOCLDY    23  19  85 CALM      29.65R
LETHBRIDGE     CLEAR     30  21  69 NW9       29.68R WCI  22
MEDICINE HAT   CLOUDY    34  30  85 W8        29.64S WCI  27
EDMONTON       MOCLDY    25  23  92 W7        29.61R WCI  17
WATERTON GATE  N/A       37  18  46 W14G24     N/A   WCI  28
CARDSTON       N/A       36  21  54 W13G18     N/A   WCI  27
MILK RIVER     N/A       28  21  75 NW13       N/A   WCI  17
$$

REGIONAL REPORTS...SASKATCHEWAN
CITY           SKY/WX    TMP DP  RH WIND       PRES   REMARKS
SWIFT CURRENT  CLOUDY   N/A N/A N/A NW18       N/A   VSB 2 1/2
REGINA         CLOUDY    23  21  92 N7        29.47R WCI  15
VAL MARIE      N/A       30  28  92 NW21G29    N/A   WCI  17
ASSINIBOIA     N/A       23  21  92 NW20       N/A   WCI   8
CORONACH       N/A       27  25  92 NW20       N/A   WCI  13

$$




USA.gov is the U.S. government's official web portal to all federal, state and local government web resources and services.